Regional Weather Roundup
Issued by NWS

Home | Current Version | Previous Version | Text Only | Print | Product List | Glossary Off
Versions: 1 2 3 4 5 6 7 8 9 10 11 12 13 14 15 16 17 18 19 20 21 22 23 24 25 26 27 28 29 30 31 32 33 34 35 36 37 38 39 40 41 42 43 44 45 46 47 48 49 50

000
ASUS43 KOAX 241510
RWRNE

WEATHER ROUNDUP FOR NEBRASKA
NATIONAL WEATHER SERVICE OMAHA NE
1000 AM CDT FRI OCT 24 2014

NOTES: SATELLITE DATA IS BEING USED TO AUGMENT CLOUD COVER ABOVE
       12000 FEET.
       "FAIR" INDICATES FEW OR NO CLOUDS BELOW 12,000 FEET WITH NO
       SIGNIFICANT WEATHER AND/OR OBSTRUCTIONS TO VISIBILITY.

  * THESE STATIONS DO NOT REPORT WEATHER SUCH AS RAIN...SNOW OR FOG.

NEZ001>004-019>022-054>056-241600-
NEBRASKA PANHANDLE

CITY           SKY/WX    TMP DP  RH WIND       PRES   REMARKS
SCOTTSBLUFF    CLOUDY    55  38  52 NW8       30.08R
ALLIANCE       CLOUDY    53  38  56 W13       30.05R
CHADRON        PTSUNNY   54  37  52 SW9       30.02R
KIMBALL        CLOUDY    58  32  36 W3        30.12R
SIDNEY         CLOUDY    58  39  49 NW6       30.10R
$$

NEZ057>060-069>072-079>082-241600-
SOUTHWEST NEBRASKA

CITY           SKY/WX    TMP DP  RH WIND       PRES   REMARKS
NORTH PLATTE   CLOUDY    47  43  86 W5        30.02R
IMPERIAL       PTSUNNY   57  40  52 CALM      30.06R
LEXINGTON      CLOUDY    53  50  89 NW5       29.99S
MCCOOK         PTSUNNY   55  45  68 W10       30.02R
OGALLALA       CLOUDY    54  41  61 W3        30.05R
$$

NEZ005>010-023>029-035>040-094-241600-
NORTH CENTRAL NEBRASKA

CITY           SKY/WX    TMP DP  RH WIND       PRES   REMARKS
VALENTINE      CLOUDY    48  40  73 SW6       29.96R
AINSWORTH      CLOUDY    52  39  63 W5        29.97R
BROKEN BOW     CLOUDY    58  44  60 W7        29.96R
O`NEILL        CLOUDY    53  47  77 W3        29.94R
ORD            CLOUDY    49  47  93 NW6       29.95R
THEDFORD       CLOUDY    55  40  56 W8        29.99R
$$

NEZ041-046>049-061>064-073>077-083>087-241600-
SOUTH CENTRAL NEBRASKA

CITY           SKY/WX    TMP DP  RH WIND       PRES   REMARKS
GRAND ISLAND   CLOUDY    58  53  84 W9        29.95R HAZE
AURORA         CLOUDY    58  56  95 SW6       29.95S FOG
HASTINGS       CLOUDY    57  52  83 SW6       29.96R
HEBRON         CLOUDY    60  58  91 SW7       29.97S FOG
HOLDREGE       CLOUDY    56  51  83 CALM      29.99R
KEARNEY *      CLOUDY    55  48  76 SW13      29.98R
YORK           CLOUDY    59  57  94 SW8       29.95S FOG
$$

NEZ011>018-030>034-042>045-241600-
NORTHEAST NEBRASKA

CITY           SKY/WX    TMP DP  RH WIND       PRES   REMARKS
NORFOLK        CLOUDY    57  54  89 CALM      29.93R FOG
ALBION         CLOUDY    55  52  90 NW3       29.93R FOG
BLAIR          CLOUDY    61  59  93 S8        29.93R FOG
COLUMBUS *     CLOUDY    59  54  82 SW8       29.95R
FREMONT        CLOUDY    63  59  87 SW5       29.93R FOG
TEKAMAH        CLOUDY    62  59  90 S9        29.92R FOG
WAYNE          CLOUDY    58  55  89 W5        29.91S
$$

NEZ050>053-065>068-078-088>093-241600-
SOUTHEAST NEBRASKA

CITY           SKY/WX    TMP DP  RH WIND       PRES   REMARKS
LINCOLN        CLOUDY    63  58  83 S8        29.96R HAZE
OMAHA EPPLEY   CLOUDY    62  58  86 S8        29.94R FOG
BEATRICE       CLOUDY    60  59  96 S10       29.97F FOG
FALLS CITY     PTSUNNY   62  59  90 S10       29.99S
NEBRASKA CITY  CLOUDY    60  60 100 SW12      29.97S FOG
PLATTSMOUTH    CLOUDY    60  58  93 S12G17    29.95R FOG
$$

NEZ044-045-051>053-067-241600-
OMAHA AREA

CITY           SKY/WX    TMP DP  RH WIND       PRES   REMARKS
OMAHA EPPLEY   CLOUDY    62  58  86 S8        29.94R FOG
BLAIR          CLOUDY    61  59  93 S8        29.93R FOG
FREMONT        CLOUDY    63  59  87 SW5       29.93R FOG
MILLARD        CLOUDY    62  59  89 S6        29.93R FOG
OFFUTT AFB     CLOUDY    62  62 100 S8        29.94R
PLATTSMOUTH    CLOUDY    60  58  93 S12G17    29.95R FOG
WAHOO          FAIR      63  58  85 SW5       29.93R HAZE
$$



USA.gov is the U.S. government's official web portal to all federal, state and local government web resources and services.